• In Hungary
  • List of Countries
  • For 7 days
  • Water Temperature
  • Satellite Maps
  • Weather Map
  • News
  • Weather Widgets
  • user-avatar
    Login

    Hourly Weather Toropy

    Today, 21 October, Sunday

    Time Temperature Precipitation Wind Pressure Humidity
    00:00 +5°C° 0 mm 1 mps 751 mmHg 80%
    01:00 +5°C° 0 mm 1 mps 751 mmHg 82%
    02:00 +4°C° 0 mm 1 mps 751 mmHg 83%
    03:00 +4°C° 0 mm 1 mps 751 mmHg 85%
    04:00 +4°C° 0 mm 1 mps 751 mmHg 86%
    05:00 +3°C° 0 mm 1 mps 751 mmHg 88%
    06:00 +4°C° 0 mm 1 mps 752 mmHg 87%
    07:00 +4°C° 0 mm 1 mps 752 mmHg 86%
    08:00 +5°C° 0 mm 1 mps 752 mmHg 79%
    09:00 +7°C° 0 mm 1 mps 753 mmHg 73%
    10:00 +8°C° 0 mm 1 mps 753 mmHg 68%
    11:00 +10°C° 0 mm 1 mps 753 mmHg 62%
    12:00 +10°C° 0 mm 1 mps 753 mmHg 59%
    13:00 +11°C° 0 mm 1 mps 753 mmHg 57%
    14:00 +11°C° 0 mm 1 mps 753 mmHg 52%
    15:00 +10°C° 0 mm 1 mps 753 mmHg 57%
    16:00 +9°C° 0 mm 1 mps 753 mmHg 63%
    17:00 +7°C° 0 mm 1 mps 753 mmHg 68%
    18:00 +6°C° 0 mm 0 mps 753 mmHg 70%
    19:00 +5°C° 0 mm 0 mps 753 mmHg 73%
    20:00 +5°C° 0 mm 0 mps 753 mmHg 75%
    21:00 +5°C° 0 mm 1 mps 753 mmHg 77%
    22:00 +5°C° 0 mm 1 mps 753 mmHg 79%
    23:00 +5°C° 0 mm 1 mps 753 mmHg 80%

    Tomorrow, 22 October, Monday

    Time Temperature Precipitation Wind Pressure Humidity
    00:00 +5°C° 0 mm 1 mps 753 mmHg 82%
    01:00 +4°C° 0 mm 1 mps 753 mmHg 84%
    02:00 +3°C° 0 mm 2 mps 753 mmHg 86%
    03:00 +3°C° 0 mm 2 mps 752 mmHg 87%
    04:00 +3°C° 0 mm 2 mps 752 mmHg 89%
    05:00 +2°C° 0 mm 2 mps 752 mmHg 90%
    06:00 +3°C° 0 mm 2 mps 751 mmHg 89%
    07:00 +3°C° 0 mm 2 mps 751 mmHg 88%
    08:00 +2°C° 0 mm 3 mps 751 mmHg 87%
    09:00 +4°C° 0 mm 3 mps 751 mmHg 80%
    10:00 +6°C° 0 mm 4 mps 750 mmHg 74%
    11:00 +7°C° 0 mm 4 mps 750 mmHg 67%
    12:00 +8°C° 0 mm 4 mps 749 mmHg 66%
    13:00 +8°C° 0 mm 5 mps 749 mmHg 64%
    14:00 +9°C° 0 mm 5 mps 748 mmHg 62%
    15:00 +8°C° 0 mm 4 mps 747 mmHg 67%
    16:00 +7°C° 0 mm 4 mps 747 mmHg 72%
    17:00 +6°C° 0 mm 4 mps 746 mmHg 76%
    18:00 +6°C° 0.1 mm 4 mps 746 mmHg 78%
    19:00 +6°C° 0.1 mm 4 mps 745 mmHg 79%
    20:00 +6°C° 0.1 mm 4 mps 745 mmHg 81%
    21:00 +6°C° 0.5 mm 4 mps 744 mmHg 83%
    22:00 +6°C° 0.5 mm 4 mps 744 mmHg 86%
    23:00 +6°C° 0.5 mm 4 mps 743 mmHg 88%

    Day after tomorrow, 23 October, Tuesday

    Time Temperature Precipitation Wind Pressure Humidity
    00:00 +6°C° 0.4 mm 4 mps 743 mmHg 89%
    01:00 +5°C° 0.4 mm 4 mps 743 mmHg 90%
    02:00 +5°C° 0.4 mm 4 mps 743 mmHg 90%
    03:00 +4°C° 0 mm 3 mps 743 mmHg 91%
    04:00 +3°C° 0 mm 3 mps 742 mmHg 92%
    05:00 +2°C° 0 mm 3 mps 742 mmHg 93%
    06:00 +2°C° 0 mm 3 mps 742 mmHg 92%
    07:00 +2°C° 0 mm 3 mps 742 mmHg 91%
    08:00 +2°C° 0 mm 3 mps 742 mmHg 90%
    09:00 +3°C° 0 mm 3 mps 741 mmHg 84%
    10:00 +4°C° 0 mm 3 mps 741 mmHg 78%
    11:00 +5°C° 0 mm 3 mps 741 mmHg 72%
    12:00 +7°C° 0 mm 3 mps 740 mmHg 67%
    13:00 +6°C° 0 mm 4 mps 739 mmHg 63%
    14:00 +7°C° 0 mm 4 mps 738 mmHg 58%
    15:00 +6°C° 0 mm 4 mps 737 mmHg 63%
    16:00 +5°C° 0 mm 4 mps 736 mmHg 68%
    17:00 +5°C° 0 mm 4 mps 734 mmHg 73%
    18:00 +4°C° 0 mm 4 mps 733 mmHg 75%
    19:00 +3°C° 0 mm 5 mps 732 mmHg 78%
    20:00 +2°C° 0 mm 5 mps 731 mmHg 80%
    21:00 +2°C° 0.2 mm 6 mps 729 mmHg 81%
    22:00 +2°C° 0.2 mm 6 mps 728 mmHg 81%
    23:00 +2°C° 0.2 mm 7 mps 726 mmHg 81%

    24 October, Wednesday

    Time Temperature Precipitation Wind Pressure Humidity
    00:00 +3°C° 0.6 mm 7 mps 725 mmHg 82%
    01:00 +3°C° 0.6 mm 7 mps 723 mmHg 83%
    02:00 +3°C° 0.6 mm 7 mps 722 mmHg 84%
    03:00 +3°C° 1 mm 6 mps 721 mmHg 86%
    04:00 +3°C° 1 mm 5 mps 720 mmHg 88%
    05:00 +4°C° 1 mm 4 mps 719 mmHg 90%
    06:00 +4°C° 0.4 mm 4 mps 719 mmHg 91%
    07:00 +4°C° 0.4 mm 3 mps 719 mmHg 92%
    08:00 +5°C° 0.4 mm 2 mps 718 mmHg 92%
    09:00 +5°C° 0.1 mm 3 mps 718 mmHg 89%
    10:00 +5°C° 0.1 mm 3 mps 719 mmHg 85%
    11:00 +7°C° 0.1 mm 3 mps 719 mmHg 82%
    12:00 +7°C° 0.1 mm 3 mps 719 mmHg 81%
    13:00 +7°C° 0.1 mm 3 mps 719 mmHg 80%
    14:00 +7°C° 0.1 mm 3 mps 719 mmHg 79%
    15:00 +5°C° 0.1 mm 3 mps 720 mmHg 81%
    16:00 +5°C° 0.1 mm 3 mps 720 mmHg 84%
    17:00 +5°C° 0.1 mm 3 mps 721 mmHg 86%
    18:00 +4°C° 0 mm 3 mps 721 mmHg 87%
    19:00 +4°C° 0 mm 4 mps 722 mmHg 88%
    20:00 +2°C° 0 mm 5 mps 723 mmHg 89%
    21:00 +2°C° 0.1 mm 6 mps 723 mmHg 87%
    22:00 +2°C° 0.1 mm 6 mps 724 mmHg 85%
    23:00 +2°C° 0.1 mm 7 mps 725 mmHg 83%

    25 October, Thursday

    Time Temperature Precipitation Wind Pressure Humidity
    00:00 +2°C° 0.2 mm 7 mps 725 mmHg 83%
    01:00 +2°C° 0.2 mm 7 mps 726 mmHg 82%
    02:00 +2°C° 0.2 mm 7 mps 727 mmHg 82%
    03:00 +1°C° 0.1 mm 8 mps 728 mmHg 82%
    04:00 +1°C° 0.1 mm 8 mps 728 mmHg 81%
    05:00 0°C° 0.1 mm 8 mps 729 mmHg 81%
    06:00 0°C° 0 mm 8 mps 729 mmHg 81%
    07:00 -1°C° 0 mm 7 mps 730 mmHg 81%
    08:00 -1°C° 0 mm 7 mps 730 mmHg 82%
    09:00 0°C° 0 mm 7 mps 731 mmHg 77%
    10:00 +1°C° 0 mm 8 mps 731 mmHg 73%
    11:00 +2°C° 0 mm 8 mps 731 mmHg 69%
    12:00 +2°C° 0 mm 8 mps 731 mmHg 69%
    13:00 +3°C° 0 mm 7 mps 732 mmHg 69%
    14:00 +4°C° 0 mm 7 mps 732 mmHg 69%
    15:00 +3°C° 0 mm 6 mps 732 mmHg 70%
    16:00 +3°C° 0 mm 6 mps 732 mmHg 72%
    17:00 +3°C° 0 mm 5 mps 732 mmHg 74%
    18:00 +2°C° 0 mm 5 mps 732 mmHg 76%
    19:00 +2°C° 0 mm 5 mps 732 mmHg 79%
    20:00 +3°C° 0 mm 4 mps 732 mmHg 82%
    21:00 +1°C° 0 mm 4 mps 732 mmHg 84%
    22:00 0°C° 0 mm 4 mps 732 mmHg 86%
    23:00 +1°C° 0 mm 3 mps 732 mmHg 89%

    26 October, Friday

    Time Temperature Precipitation Wind Pressure Humidity
    00:00 0°C° 0 mm 3 mps 732 mmHg 90%
    01:00 0°C° 0 mm 3 mps 732 mmHg 91%
    02:00 0°C° 0 mm 3 mps 733 mmHg 92%
    03:00 +1°C° 0 mm 2 mps 733 mmHg 92%
    04:00 +1°C° 0 mm 2 mps 733 mmHg 92%
    05:00 +1°C° 0 mm 2 mps 733 mmHg 92%
    06:00 +1°C° 0 mm 2 mps 734 mmHg 93%
    07:00 +1°C° 0 mm 2 mps 734 mmHg 93%
    08:00 +1°C° 0 mm 2 mps 734 mmHg 94%
    09:00 +2°C° 0 mm 3 mps 734 mmHg 90%
    10:00 +3°C° 0 mm 3 mps 735 mmHg 85%
    11:00 +5°C° 0 mm 4 mps 735 mmHg 81%
    12:00 +5°C° 0 mm 4 mps 735 mmHg 79%
    13:00 +6°C° 0 mm 4 mps 735 mmHg 76%
    14:00 +6°C° 0 mm 4 mps 736 mmHg 74%
    15:00 +5°C° 0 mm 3 mps 736 mmHg 77%
    16:00 +4°C° 0 mm 3 mps 736 mmHg 81%
    17:00 +4°C° 0 mm 2 mps 737 mmHg 84%
    18:00 +4°C° 0 mm 2 mps 737 mmHg 86%
    19:00 +4°C° 0 mm 2 mps 737 mmHg 87%
    20:00 +3°C° 0 mm 2 mps 737 mmHg 88%
    21:00 +3°C° 0 mm 3 mps 737 mmHg 88%
    22:00 +3°C° 0 mm 3 mps 737 mmHg 89%
    23:00 +3°C° 0 mm 3 mps 737 mmHg 90%
    Show more